Wind_Speed
16 12 12 13 10 6 9 8 9 7 5 5 2 7 4 4 3 8 13 18 21 20 21 17 24 24 27 17 17 16 12 10 9 17 15 15 17 20 17 16 15 13 17 25
11 13 8 4 10 4 8 11 9 2 2 2 9 9 3 6 9 8 11 14 20 21 20 20 20 21 21 21 20 15 12 12 10 7 12 13 18 17 18 16 12 13 15 21
15 5 4 4 10 13 10 9 7 6 12 8 12 6 5 8 5 4 8 15 18 20 20 20 20 20 18 18 18 15 6 7 10 13 10 12 13 16 18 14 12 16 12 17
6 2 5 7 8 10 2 10 7 7 9 6 3 6 9 2 7 15 15 16 18 19 17 19 18 19 17 16 18 11 10 10 12 10 9 10 13 15 16 15 16 14 11 9
3 3 7 8 6 7 5 7 7 6 8 9 2 5 6 10 12 14 17 16 17 16 18 16 18 16 15 13 11 14 10 6 12 14 9 10 13 16 15 16 15 16 15 14
6 3 3 6 8 6 11 13 16 8 6 6 4 4 3 8 12 13 15 17 16 16 14 15 15 14 13 12 12 12 13 12 11 10 11 12 13 15 15 17 13 14 17 14
8 5 4 6 10 3 13 16 3 5 5 2 2 2 2 8 9 8 12 16 17 15 13 14 13 12 11 11 10 9 11 11 10 11 10 11 12 13 14 14 15 17 13 11
7 3 6 7 5 5 8 7 3 4 6 8 4 4 1 1 7 12 13 14 15 14 13 12 11 10 11 11 9 9 10 9 9 9 10 12 13 12 13 13 15 13 11 10
7 3 5 5 3 5 6 4 4 4 8 5 3 4 2 3 10 12 15 14 13 13 12 11 11 8 8 9 8 8 8 9 9 10 10 11 9 10 10 12 12 14 10 8
4 4 1 3 2 3 2 3 2 2 5 5 4 6 3 8 10 10 14 14 13 12 12 11 10 8 8 7 7 8 8 8 9 10 9 9 9 10 11 12 11 10 8 9
6 2 3 3 6 4 3 3 2 2 3 3 5 2 2 3 6 9 15 13 11 11 11 10 9 8 8 7 7 7 7 7 8 8 7 8 8 7 9 12 11 10 10 7
4 4 5 6 6 3 2 5 3 2 2 5 3 5 3 2 4 13 13 13 11 9 9 9 9 8 7 7 7 7 8 6 8 6 6 7 9 9 10 9 13 11 9 10
5 2 6 6 3 4 3 2 4 6 1 6 3 2 6 6 8 15 13 12 11 10 9 9 8 9 8 7 7 7 6 6 6 6 7 6 9 7 9 7 7 11 10 9
2 3 6 6 12 13 12 12 9 7 4 4 10 17 13 12 10 17 11 9 9 9 9 9 9 9 8 7 6 6 5 6 5 5 6 7 8 9 7 8 10 9 12 12
2 5 9 13 17 18 16 17 15 14 12 6 6 9 16 15 12 17 6 8 10 10 9 9 9 8 8 7 6 6 5 5 5 4 5 6 7 8 8 6 6 10 11 10
6 4 10 13 16 2 12 17 14 16 14 17 18 22 23 20 11 4 7 10 10 11 10 8 8 8 8 7 7 5 6 6 5 4 4 5 5 6 12 5 5 8 8 8
5 4 6 5 10 10 11 8 12 11 11 7 12 17 10 10 13 15 14 9 10 11 10 8 8 8 7 7 6 6 6 6 5 5 5 5 5 5 8 3 6 7 6 6
7 7 5 6 11 2 8 5 3 7 13 14 12 14 12 16 16 18 16 12 11 10 10 9 9 8 8 7 6 6 5 6 7 6 6 5 5 4 7 8 6 7 6 6
7 7 4 3 6 14 15 1 3 4 7 11 14 15 19 17 8 20 10 10 9 11 11 11 9 9 9 8 8 7 7 7 7 8 7 7 6 5 5 5 6 7 6 7
6 7 6 4 4 4 5 6 2 1 5 5 3 7 4 4 3 4 2 6 8 9 10 11 10 10 9 9 9 10 9 9 10 9 9 9 8 7 6 7 7 7 6 6
5 6 11 8 5 8 13 6 6 2 2 1 8 11 8 5 12 15 12 10 10 12 11 11 12 12 11 11 12 12 12 12 11 11 11 10 10 9 9 9 9 8 7 7
10 5 5 6 5 8 9 10 6 5 7 11 15 16 17 13 14 15 15 14 14 13 12 13 13 14 14 13 14 14 14 13 12 12 12 11 12 10 9 10 12 9 10 9
10 8 4 8 6 11 9 12 14 18 21 21 22 21 18 19 17 16 17 17 18 18 17 16 16 15 16 17 16 16 16 14 13 15 14 14 13 12 12 13 14 13 12 12
16 20 12 10 13 21 25 26 29 31 32 26 24 19 18 21 20 19 18 18 18 19 19 18 19 19 19 19 19 19 16 15 16 17 17 16 15 15 15 14 15 17 16 16
12 15 15 16 26 27 30 24 22 16 15 15 17 19 20 19 20 20 20 19 19 19 19 20 22 23 23 20 22 21 20 18 19 19 19 19 17 18 18 19 19 20 20 19
23 23 12 14 28 19 23 20 20 23 22 20 17 17 18 18 19 18 21 19 18 19 20 21 24 26 25 23 23 23 24 21 22 22 22 23 22 21 20 21 22 21 23 25
Wind_Direction
58 72 42 34 24 22 14 348 22 52 65 324 310 299 294 107 293 308 319 327 318 318 322 327 327 322 331 304 295 286 268 293 313 322 329 328 320 320 320 316 315 329 318 324
118 62 17 348 31 16 29 11 3 146 161 270 313 306 284 61 10 319 306 312 339 334 332 336 333 332 322 327 313 313 281 281 290 306 324 330 318 319 314 320 316 325 332 320
60 61 343 345 37 351 73 12 329 317 314 255 306 233 194 128 289 244 351 350 339 337 339 339 338 334 333 329 335 337 305 337 331 320 350 330 318 314 324 327 333 329 336 310
67 77 330 351 44 355 30 5 309 303 327 353 31 329 108 66 320 0 8 359 341 338 339 338 341 338 335 331 332 327 319 324 318 312 337 321 322 318 320 326 319 325 6 333
84 17 355 21 3 344 3 317 301 317 306 296 144 325 117 43 351 355 351 337 337 343 340 346 344 337 333 344 348 350 353 301 331 352 336 324 319 323 324 323 329 324 326 3
103 95 18 1 305 261 289 272 236 230 252 244 7 23 303 14 356 335 338 328 340 340 342 348 341 337 339 340 338 335 337 351 334 331 324 326 321 323 321 319 335 316 313 322
159 113 106 343 328 205 343 342 49 223 209 11 341 322 62 6 340 327 332 344 345 346 348 339 340 339 337 342 340 338 341 340 333 326 327 331 324 323 324 328 332 333 319 318
337 192 11 26 40 319 321 345 32 301 342 313 184 234 335 184 285 2 345 350 344 344 344 341 342 334 334 336 340 337 340 342 341 338 339 332 330 329 327 328 322 333 321 343
352 82 128 60 354 341 348 33 345 277 255 266 232 137 151 202 8 357 352 351 346 341 341 346 341 333 333 330 334 336 341 340 341 340 341 337 332 336 334 317 331 334 336 352
25 299 59 106 236 169 339 335 229 228 316 317 328 305 33 4 348 351 343 350 343 342 339 340 341 337 331 321 322 327 336 338 339 341 337 338 347 334 326 337 341 0 357 346
348 269 148 208 192 3 185 206 201 234 263 306 314 309 250 315 347 336 345 345 344 338 332 336 338 337 329 320 321 323 324 335 334 345 353 355 335 347 347 346 359 346 354 3
52 313 283 348 76 15 308 303 271 286 58 282 267 272 255 199 304 360 343 339 337 331 329 330 328 323 317 319 316 318 323 328 337 348 349 354 350 16 352 356 342 11 356 23
2 260 297 150 164 169 213 266 239 265 138 243 289 273 192 178 13 351 336 330 330 324 320 327 326 323 316 308 308 305 311 319 333 337 338 339 358 358 19 1 358 7 8 24
339 262 254 272 296 301 296 281 223 221 253 287 252 276 297 338 338 326 319 318 316 315 310 312 313 314 314 299 293 294 294 305 319 328 338 339 343 359 4 2 23 22 17 10
247 267 271 280 291 291 280 276 264 238 211 236 279 316 291 301 289 286 276 294 301 302 301 300 304 303 304 304 290 286 280 283 304 316 322 328 337 329 332 8 40 25 12 2
189 276 307 292 288 330 281 273 262 255 240 225 252 274 279 278 300 196 293 303 283 286 286 287 291 293 296 295 284 279 259 259 271 288 308 317 330 324 323 327 41 28 2 1
223 258 322 270 319 304 284 272 234 232 234 212 236 251 294 291 309 303 287 262 269 271 271 273 277 278 279 280 273 262 261 254 257 269 286 307 311 316 321 347 19 2 355 6
250 241 262 288 304 291 252 274 235 256 258 223 223 247 245 255 271 281 273 254 249 256 257 255 256 258 263 261 257 247 244 246 260 264 273 284 295 304 305 342 347 328 341 354
215 262 267 260 285 291 284 82 176 216 275 267 249 257 238 237 284 295 287 237 245 250 247 243 242 248 246 248 245 241 246 253 254 265 263 262 271 272 286 305 298 313 326 338
208 232 257 221 248 263 260 124 99 351 267 110 83 331 307 231 240 279 267 235 244 244 237 243 237 238 237 240 240 243 244 248 258 261 263 259 258 265 263 275 280 288 313 327
188 213 226 236 258 271 262 243 140 237 41 141 328 327 308 263 236 258 271 257 249 248 240 234 237 241 239 239 238 241 247 251 254 259 259 253 249 250 253 259 270 275 273 280
183 196 201 215 236 253 232 139 205 259 329 310 310 307 314 279 259 254 253 254 249 247 242 239 233 241 252 239 239 243 247 254 252 250 253 254 259 256 252 261 260 260 276 279
230 209 224 199 225 243 210 241 253 269 271 283 287 292 288 286 276 268 255 248 243 244 244 240 242 240 243 253 243 243 247 245 247 253 254 254 255 252 261 254 255 261 261 267
258 249 248 276 258 264 267 288 290 297 291 284 265 269 274 276 276 273 269 259 251 244 242 242 241 240 243 245 250 252 248 246 244 245 252 258 255 255 257 253 251 257 250 252
255 280 272 263 256 262 272 274 271 283 293 296 287 284 273 278 277 272 269 264 258 252 245 241 240 244 244 242 246 256 256 239 242 245 251 253 255 257 260 257 250 252 260 253
245 250 247 255 264 279 283 279 304 303 302 301 292 285 282 283 277 273 271 268 262 255 249 245 243 242 242 244 242 246 254 254 244 243 247 253 257 258 255 257 263 262 252 254
Height
1547 1552 1561 1560 1556 1552 1549 1546 1546 1547 1558 1560 1552 1551 1548 1553 1557 1559 1559 1560 1561 1558 1557 1554 1552 1550 1548 1545 1543 1543 1542 1541 1541 1545 1542 1538 1539 1537 1535 1533 1530 1528 1523 1519
1549 1562 1565 1558 1556 1556 1552 1555 1556 1551 1557 1559 1550 1551 1547 1552 1558 1560 1560 1559 1556 1554 1552 1550 1549 1548 1546 1544 1542 1540 1536 1535 1541 1537 1538 1536 1536 1535 1532 1531 1528 1527 1523 1518
1554 1567 1565 1559 1557 1558 1558 1566 1563 1561 1553 1549 1548 1540 1547 1553 1554 1555 1555 1555 1554 1552 1550 1549 1548 1546 1544 1543 1540 1539 1536 1535 1540 1538 1533 1533 1534 1532 1530 1527 1525 1524 1522 1516
1563 1568 1563 1555 1558 1565 1553 1566 1563 1558 1555 1553 1549 1555 1547 1549 1551 1552 1552 1553 1553 1551 1550 1549 1547 1545 1544 1541 1540 1536 1535 1534 1537 1534 1531 1532 1531 1530 1528 1525 1523 1521 1517 1515
1567 1563 1564 1560 1568 1567 1563 1564 1562 1560 1557 1552 1545 1544 1544 1544 1552 1552 1553 1552 1551 1550 1549 1547 1546 1544 1542 1540 1539 1535 1534 1533 1534 1532 1530 1530 1529 1528 1525 1524 1520 1519 1516 1515
1562 1567 1567 1569 1566 1565 1562 1555 1550 1554 1554 1558 1550 1553 1548 1552 1554 1553 1552 1550 1549 1548 1547 1546 1544 1543 1540 1539 1537 1536 1533 1532 1531 1530 1530 1528 1528 1526 1524 1521 1518 1515 1513 1512
1559 1562 1568 1569 1560 1560 1557 1549 1541 1552 1556 1556 1556 1555 1553 1551 1552 1551 1549 1547 1548 1547 1545 1543 1542 1541 1540 1538 1536 1534 1532 1531 1530 1529 1528 1527 1525 1524 1522 1520 1516 1514 1511 1510
1553 1559 1567 1571 1573 1574 1565 1564 1573 1580 1562 1557 1553 1562 1554 1549 1549 1547 1548 1547 1547 1545 1543 1542 1540 1539 1539 1537 1535 1533 1532 1530 1528 1527 1526 1525 1524 1522 1520 1518 1515 1513 1511 1509
1567 1565 1571 1573 1573 1574 1567 1570 1573 1577 1560 1566 1537 1546 1546 1542 1544 1546 1547 1546 1544 1543 1541 1540 1539 1537 1537 1536 1535 1532 1531 1530 1528 1526 1524 1523 1522 1520 1519 1517 1514 1512 1510 1508
1567 1570 1566 1572 1574 1574 1572 1574 1575 1572 1577 1572 1545 1541 1543 1544 1545 1545 1545 1543 1542 1541 1540 1538 1537 1536 1535 1533 1533 1532 1530 1529 1527 1525 1522 1521 1519 1519 1518 1515 1513 1512 1510 1508
1570 1570 1568 1569 1568 1562 1569 1565 1571 1574 1570 1573 1568 1549 1544 1545 1545 1545 1543 1540 1540 1539 1538 1537 1537 1536 1535 1534 1533 1531 1529 1528 1525 1524 1522 1520 1518 1517 1516 1515 1513 1511 1510 1508
1577 1576 1573 1556 1563 1566 1566 1566 1565 1576 1567 1567 1563 1562 1537 1541 1544 1543 1542 1539 1539 1538 1537 1537 1536 1535 1533 1533 1532 1531 1528 1528 1526 1524 1522 1520 1518 1517 1516 1515 1513 1512 1510 1508
1579 1573 1574 1569 1568 1565 1564 1562 1565 1566 1570 1577 1570 1545 1534 1537 1540 1541 1539 1538 1538 1537 1536 1536 1534 1533 1532 1531 1530 1529 1529 1528 1527 1526 1524 1521 1518 1516 1516 1514 1512 1512 1511 1509
1582 1575 1575 1573 1563 1557 1559 1554 1557 1565 1575 1562 1552 1538 1531 1534 1538 1538 1537 1537 1536 1535 1534 1534 1533 1531 1530 1529 1527 1527 1527 1526 1526 1525 1524 1522 1520 1517 1515 1515 1514 1514 1512 1509
1581 1576 1567 1562 1556 1554 1553 1550 1549 1554 1561 1565 1541 1549 1538 1537 1537 1533 1533 1535 1534 1533 1532 1531 1530 1529 1529 1528 1527 1526 1525 1525 1524 1524 1524 1523 1522 1519 1516 1515 1514 1513 1513 1512
1577 1575 1568 1562 1550 1555 1549 1542 1541 1539 1541 1553 1549 1546 1533 1531 1530 1531 1531 1531 1530 1530 1529 1529 1528 1528 1527 1526 1525 1525 1524 1523 1523 1522 1522 1522 1522 1521 1518 1516 1514 1514 1514 1512
1573 1572 1568 1564 1547 1551 1549 1529 1527 1533 1531 1540 1547 1532 1530 1530 1530 1530 1528 1527 1527 1526 1526 1526 1526 1525 1525 1524 1524 1523 1523 1522 1521 1521 1521 1521 1520 1520 1518 1516 1515 1515 1514 1512
1565 1568 1568 1566 1556 1573 1527 1518 1522 1526 1522 1524 1528 1525 1528 1528 1526 1524 1522 1521 1522 1522 1523 1522 1522 1523 1522 1521 1521 1520 1521 1521 1521 1520 1521 1521 1520 1520 1519 1517 1516 1516 1514 1512
1567 1568 1568 1569 1558 1542 1524 1517 1522 1525 1522 1513 1513 1514 1516 1519 1521 1519 1515 1518 1519 1518 1519 1519 1520 1520 1520 1520 1519 1519 1519 1519 1519 1519 1518 1518 1518 1517 1518 1518 1517 1516 1514 1513
1564 1568 1567 1563 1564 1555 1519 1518 1522 1522 1527 1508 1511 1514 1514 1516 1522 1517 1517 1517 1517 1517 1517 1517 1517 1517 1517 1518 1517 1517 1516 1516 1515 1515 1516 1516 1515 1515 1515 1515 1514 1514 1513 1513
1565 1565 1567 1566 1561 1540 1517 1516 1522 1532 1519 1511 1512 1512 1512 1513 1513 1513 1515 1514 1514 1514 1514 1514 1514 1514 1514 1514 1513 1513 1513 1513 1513 1513 1512 1511 1511 1511 1511 1512 1511 1510 1509 1509
1550 1557 1555 1555 1553 1547 1512 1520 1523 1512 1510 1510 1510 1510 1509 1507 1507 1507 1509 1510 1511 1511 1511 1510 1511 1511 1511 1511 1511 1511 1510 1510 1510 1510 1509 1509 1509 1509 1509 1509 1509 1508 1508 1507
1537 1535 1534 1536 1525 1516 1514 1511 1511 1510 1508 1508 1508 1507 1507 1505 1504 1504 1503 1504 1505 1506 1506 1507 1507 1507 1508 1507 1506 1506 1506 1508 1508 1507 1507 1507 1506 1507 1507 1506 1506 1505 1505 1505
1526 1524 1522 1523 1509 1509 1509 1508 1506 1505 1502 1500 1499 1499 1501 1500 1500 1499 1499 1499 1500 1501 1502 1503 1503 1503 1502 1502 1502 1501 1502 1503 1503 1503 1503 1503 1503 1502 1502 1502 1503 1502 1501 1501
1524 1520 1513 1508 1501 1505 1504 1500 1498 1497 1496 1495 1494 1494 1494 1494 1494 1495 1495 1495 1496 1496 1496 1497 1497 1497 1496 1497 1496 1496 1496 1497 1497 1497 1497 1497 1496 1496 1496 1497 1497 1497 1496 1496
1517 1506 1513 1504 1496 1502 1497 1495 1495 1494 1493 1492 1491 1490 1490 1489 1489 1489 1489 1490 1490 1491 1491 1491 1491 1491 1491 1491 1492 1492 1491 1490 1490 1491 1491 1491 1491 1492 1492 1491 1491 1491 1492 1492